Vorticity
8 6 5 8 8 4 8 6 8 7 4 3 -1 -0 2 6 3 5 5 7 3 4 3 -2 7 5 5 8 6 5 2 10 17 11 7 4 10 2 5 10 10 4 6 4 7
4 4 5 4 3 3 3 7 10 8 8 3 4 4 3 5 5 8 7 8 4 5 2 7 5 8 7 6 4 7 3 20 15 9 7 4 7 8 5 3 14 5 9 7 2
7 6 5 5 8 8 8 10 7 8 8 6 6 6 5 7 11 8 4 4 6 4 6 3 4 8 6 12 13 14 16 20 8 6 10 8 6 14 18 6 17 9 8 7 7
7 7 7 7 7 6 7 10 7 4 6 6 5 6 9 11 6 3 6 4 5 3 4 -1 3 1 2 2 13 29 27 13 11 7 21 33 29 19 19 17 18 10 11 6 9
5 5 6 6 5 6 7 8 10 9 6 4 9 12 7 6 1 7 3 6 4 7 1 4 9 7 13 23 12 16 16 14 18 34 28 26 31 25 25 21 20 18 11 11 5
9 7 8 7 7 8 8 8 9 7 6 8 7 4 4 2 8 2 8 4 8 3 5 7 5 8 22 15 24 25 15 29 32 27 22 12 -2 15 29 22 19 13 11 12 7
11 10 8 10 9 10 9 9 8 7 9 6 4 4 5 8 3 10 6 7 2 1 6 9 11 15 2 30 25 21 27 21 16 11 11 21 23 4 9 6 15 19 13 10 10
6 8 9 11 10 10 10 9 10 8 6 5 2 3 1 5 11 7 8 4 0 -1 7 5 9 13 30 26 24 22 20 7 17 10 10 2 38 5 15 14 11 20 19 11 8
8 7 8 11 10 11 11 9 7 6 4 3 7 6 8 13 7 8 5 7 7 8 6 7 6 19 19 22 27 27 19 16 19 22 19 12 9 14 17 17 14 15 25 20 9
9 8 9 13 9 6 5 4 4 4 8 7 6 17 14 8 9 6 3 6 5 6 6 11 16 23 29 27 16 12 1 17 22 14 24 19 19 31 13 24 25 19 32 27 20
8 10 14 10 4 3 4 6 6 5 4 11 16 -1 10 7 7 4 7 6 5 6 11 6 25 21 30 20 14 14 11 17 -0 14 15 17 16 4 20 19 17 31 19 26 34
9 13 9 4 6 4 8 8 5 7 14 22 0 10 7 6 5 6 6 7 6 8 11 14 26 24 35 16 9 8 12 15 18 17 13 15 18 18 31 7 22 25 32 15 36
9 12 8 2 4 4 5 5 6 7 11 -7 11 8 8 5 7 7 8 6 7 11 6 20 11 31 18 16 14 11 10 7 20 11 13 18 18 23 20 35 -22 11 22 25 27
8 10 10 0 3 6 4 6 6 4 8 19 9 9 7 8 6 6 9 4 9 9 8 20 21 24 15 17 21 -6 10 17 15 14 12 11 7 25 23 21 16 14 8 17 21
9 11 7 6 8 3 5 6 10 11 11 5 10 9 7 6 6 7 4 6 8 10 19 -11 23 24 11 12 11 15 9 4 4 11 9 11 5 -1 21 20 19 12 18 13 26
3 11 -2 9 1 6 5 13 5 6 15 10 7 8 6 7 6 8 5 9 6 11 17 20 21 22 11 3 6 5 14 9 8 3 8 13 10 -4 9 13 17 23 6 14 20
7 10 9 5 5 3 12 6 9 15 16 8 5 7 7 7 9 8 6 6 8 7 11 21 19 19 14 4 5 7 3 11 9 9 2 6 12 -2 12 5 5 25 25 23 8
6 8 6 8 5 12 6 0 5 2 11 10 6 8 5 5 8 5 5 10 8 6 5 13 30 20 15 11 8 7 7 1 -3 8 7 10 12 11 10 3 9 4 21 24 24
10 10 7 9 11 12 4 2 2 11 1 8 10 8 8 10 10 7 7 11 11 9 16 16 27 20 17 15 11 9 6 5 12 17 17 7 13 5 12 10 6 3 3 20 24
9 10 11 9 8 9 3 -1 3 10 7 4 9 9 9 11 11 8 12 5 11 11 8 6 14 25 16 17 8 3 6 17 8 11 9 12 10 6 12 16 3 11 2 3 22
5 5 7 9 6 8 9 0 1 1 12 8 9 9 9 6 11 6 5 5 8 12 13 13 20 22 23 14 7 8 10 7 4 9 5 12 18 7 10 19 21 8 12 0 6
5 5 5 8 7 9 4 5 6 7 10 8 11 8 8 7 11 9 14 9 11 9 12 13 8 18 19 16 2 6 15 13 11 9 11 4 22 22 12 31 33 33 23 16 16
5 5 6 5 17 4 7 7 6 15 12 10 8 7 8 12 7 11 12 9 9 13 3 9 7 16 14 21 5 4 12 12 10 10 7 -2 7 16 31 17 23 46 33 30 20
6 7 7 17 6 5 5 4 12 14 12 7 5 4 7 13 3 6 9 10 12 11 14 12 20 18 15 13 7 4 12 6 9 4 -4 0 12 18 18 25 14 32 5 7 13
3 4 4 5 7 4 4 5 10 13 11 5 9 5 9 10 8 9 9 13 12 9 17 16 15 17 13 24 10 5 6 9 14 9 -2 3 16 27 28 6 15 20 18 20 8
3 4 2 5 7 8 4 10 8 9 9 7 10 10 11 12 6 12 8 12 12 17 11 16 8 13 11 23 15 17 7 6 -1 3 18 10 8 26 19 11 15 18 16 26 32
0 11 19 5 7 11 7 11 6 4 7 7 7 12 10 8 10 9 10 10 8 13 16 16 21 15 8 25 0 21 4 1 10 10 15 11 2 23 12 10 10 5 10 19 35
Height
5822 5819 5817 5815 5813 5811 5809 5806 5804 5801 5798 5796 5794 5792 5791 5787 5785 5782 5777 5774 5770 5766 5761 5757 5753 5748 5743 5738 5733 5728 5722 5718 5720 5715 5715 5713 5716 5720 5725 5729 5731 5731 5735 5741 5746
5817 5815 5813 5810 5808 5805 5802 5800 5797 5794 5792 5789 5786 5784 5782 5777 5775 5772 5768 5763 5759 5754 5749 5744 5739 5733 5727 5723 5715 5708 5703 5700 5699 5690 5689 5688 5689 5694 5701 5708 5714 5716 5718 5722 5731
5812 5810 5807 5804 5801 5799 5796 5793 5790 5788 5785 5782 5778 5776 5773 5768 5765 5761 5756 5752 5747 5742 5737 5731 5725 5718 5712 5705 5698 5691 5680 5678 5672 5667 5660 5659 5658 5667 5678 5689 5691 5698 5702 5704 5713
5806 5803 5801 5798 5795 5793 5790 5787 5784 5781 5777 5774 5771 5769 5764 5760 5755 5750 5745 5740 5735 5730 5724 5717 5708 5701 5692 5683 5675 5666 5658 5651 5647 5640 5631 5632 5641 5644 5655 5671 5673 5678 5682 5688 5695
5799 5797 5795 5792 5789 5786 5783 5780 5776 5774 5770 5766 5763 5760 5756 5752 5746 5741 5736 5730 5724 5717 5710 5702 5692 5683 5673 5661 5649 5637 5632 5626 5618 5617 5612 5614 5618 5625 5639 5645 5651 5659 5664 5671 5678
5793 5791 5788 5785 5782 5779 5777 5773 5769 5767 5763 5759 5755 5752 5748 5743 5736 5729 5724 5718 5711 5705 5696 5686 5677 5665 5652 5639 5624 5615 5606 5601 5597 5599 5594 5596 5603 5604 5626 5626 5628 5635 5646 5653 5661
5788 5784 5782 5779 5775 5772 5769 5766 5762 5760 5755 5752 5748 5743 5738 5733 5726 5720 5713 5707 5699 5691 5681 5671 5658 5645 5632 5618 5605 5593 5587 5585 5588 5583 5582 5580 5582 5595 5604 5596 5603 5613 5627 5635 5644
5782 5778 5776 5773 5769 5765 5761 5759 5756 5752 5747 5744 5740 5734 5729 5722 5716 5709 5703 5695 5687 5677 5666 5652 5640 5626 5610 5598 5584 5576 5571 5570 5573 5568 5571 5568 5570 5577 5580 5582 5589 5597 5610 5616 5626
5777 5772 5769 5766 5762 5758 5755 5752 5748 5744 5739 5735 5730 5723 5717 5711 5705 5697 5690 5682 5673 5664 5651 5637 5623 5608 5593 5580 5572 5565 5561 5560 5560 5556 5555 5555 5560 5567 5567 5571 5575 5586 5596 5606 5616
5771 5766 5763 5759 5755 5752 5748 5745 5740 5737 5731 5726 5720 5715 5707 5701 5693 5686 5679 5670 5660 5649 5636 5622 5607 5593 5580 5568 5562 5558 5553 5553 5549 5546 5546 5547 5553 5553 5557 5561 5566 5573 5583 5593 5603
5764 5760 5756 5752 5749 5746 5742 5738 5734 5730 5723 5717 5710 5704 5696 5691 5683 5675 5667 5658 5646 5635 5621 5607 5596 5582 5568 5558 5553 5550 5547 5544 5544 5540 5540 5537 5542 5542 5546 5551 5554 5561 5569 5582 5593
5758 5754 5749 5746 5742 5739 5735 5730 5725 5720 5712 5706 5699 5693 5687 5679 5672 5664 5655 5645 5634 5622 5609 5597 5585 5573 5562 5554 5548 5544 5541 5539 5539 5536 5534 5534 5538 5539 5543 5547 5551 5556 5562 5572 5582
5752 5748 5743 5739 5735 5731 5727 5722 5715 5709 5703 5698 5690 5684 5676 5669 5661 5652 5644 5632 5622 5609 5597 5585 5575 5562 5555 5549 5545 5539 5536 5535 5534 5532 5530 5530 5536 5535 5535 5538 5544 5546 5549 5557 5569
5746 5741 5736 5733 5730 5724 5718 5713 5706 5700 5693 5688 5680 5673 5666 5658 5651 5641 5631 5623 5611 5600 5589 5576 5563 5555 5548 5542 5538 5538 5531 5529 5526 5527 5529 5527 5533 5529 5529 5530 5531 5533 5536 5541 5549
5738 5735 5730 5725 5721 5716 5711 5704 5698 5692 5685 5679 5670 5663 5656 5649 5640 5630 5622 5611 5602 5591 5578 5567 5555 5547 5540 5536 5533 5532 5527 5524 5522 5521 5521 5524 5525 5528 5523 5517 5520 5523 5530 5534 5540
5732 5727 5723 5719 5714 5708 5702 5696 5690 5684 5674 5669 5663 5655 5647 5638 5630 5620 5612 5603 5595 5583 5567 5556 5547 5540 5536 5531 5528 5525 5523 5518 5516 5515 5517 5516 5518 5522 5513 5519 5520 5522 5527 5534 5537
5725 5721 5716 5711 5706 5700 5695 5688 5682 5674 5669 5661 5653 5646 5637 5630 5622 5613 5604 5593 5584 5572 5561 5552 5543 5534 5530 5527 5523 5520 5517 5513 5511 5510 5510 5509 5512 5508 5514 5514 5514 5516 5519 5523 5530
5718 5713 5708 5703 5697 5693 5687 5681 5675 5668 5661 5654 5645 5638 5630 5622 5615 5605 5595 5585 5572 5560 5550 5542 5536 5530 5524 5520 5517 5514 5512 5509 5502 5502 5499 5503 5501 5501 5505 5507 5508 5509 5510 5513 5519
5712 5706 5701 5695 5689 5685 5679 5673 5666 5658 5652 5645 5636 5629 5621 5612 5604 5595 5585 5574 5563 5552 5543 5533 5529 5522 5516 5513 5511 5507 5506 5503 5497 5496 5493 5493 5494 5491 5495 5499 5500 5502 5505 5507 5509
5706 5700 5694 5688 5682 5677 5671 5665 5658 5650 5643 5636 5628 5620 5612 5602 5593 5583 5574 5564 5556 5545 5534 5527 5520 5517 5510 5506 5505 5502 5499 5496 5492 5488 5485 5486 5485 5484 5484 5486 5489 5493 5497 5501 5502
5697 5692 5686 5680 5674 5669 5663 5656 5650 5642 5634 5628 5618 5609 5601 5593 5583 5574 5565 5555 5545 5537 5528 5517 5512 5511 5504 5500 5498 5495 5492 5489 5487 5483 5478 5475 5477 5479 5471 5469 5472 5480 5487 5491 5495
5688 5684 5678 5672 5666 5660 5653 5646 5640 5632 5623 5617 5608 5599 5590 5583 5575 5566 5557 5544 5535 5528 5520 5511 5501 5500 5497 5493 5491 5488 5484 5482 5479 5478 5475 5470 5465 5471 5463 5456 5457 5466 5476 5481 5486
5678 5675 5671 5663 5655 5649 5644 5635 5628 5622 5615 5606 5599 5590 5581 5573 5562 5556 5547 5537 5527 5519 5510 5503 5495 5491 5487 5487 5483 5481 5478 5475 5472 5470 5471 5464 5461 5460 5451 5448 5449 5455 5464 5471 5475
5666 5661 5659 5654 5647 5641 5633 5627 5619 5611 5605 5595 5589 5579 5572 5564 5554 5546 5537 5529 5520 5510 5501 5493 5489 5484 5481 5476 5474 5473 5470 5468 5465 5464 5461 5461 5452 5452 5443 5444 5445 5446 5454 5461 5467
5655 5650 5647 5640 5636 5629 5621 5616 5609 5600 5596 5586 5580 5570 5562 5554 5546 5537 5528 5520 5511 5502 5494 5486 5479 5474 5473 5470 5466 5464 5464 5461 5458 5458 5452 5454 5448 5442 5442 5443 5441 5443 5446 5452 5459
5644 5638 5635 5632 5625 5620 5611 5604 5599 5591 5585 5577 5569 5560 5552 5544 5535 5527 5518 5510 5504 5495 5484 5478 5469 5464 5462 5461 5457 5454 5457 5455 5453 5451 5447 5446 5444 5439 5438 5438 5439 5440 5441 5445 5450
5635 5630 5622 5620 5615 5609 5601 5596 5587 5581 5576 5567 5559 5552 5544 5535 5526 5517 5508 5499 5492 5485 5477 5468 5461 5455 5449 5451 5448 5446 5451 5447 5445 5443 5441 5440 5438 5435 5433 5432 5433 5434 5436 5439 5443